User: anonymous   Login
Location: Vancouver
(49.2500°N, 123.1330°W)
Time: 15:15:20
(UTC-07:00)
Language:

Cosmos 1864 Rocket - Orbit

View from above orbital plane
View from above orbital plane
View from above satellite
View from above satellite

Ground track
Ground track

The orbit data is extracted from the following two-line orbital elements,

1 18161U 87057B   15211.54704788  .00000168  00000-0  15377-3 0  9998
2 18161 082.9317 223.6146 0032718 078.6055 030.9806 13.76900161389599
Epoch (UTC): 30 July 2015 13:07:44
Eccentricity: 0.0032718
inclination: 82.9317°
perigee height: 951 km
apogee height: 999 km
right ascension of ascending node: 223.6146°
argument of perigee: 78.6055°
revolutions per day: 13.76900161
mean anomaly at epoch: 30.9806°
orbit number at epoch: 38959

The dashed part of the orbit path shows where the satellite is in the earth's shadow,  

DLR